Weather reports worldwide

Advertisment
Treviso/Istrana, Italy (16098): temperature & dewpoint: 15.05.2019 16:00:00 - 21.05.2019 16:00:00 (CEST)Treviso/Istrana, Italy (16098): wind speed: 15.05.2019 16:00:00 - 21.05.2019 16:00:00 (CEST)Treviso/Istrana, Italy (16098): wind direction: 15.05.2019 16:00:00 - 21.05.2019 16:00:00 (CEST)Treviso/Istrana, Italy (16098): reduced air pressure: 15.05.2019 16:00:00 - 21.05.2019 16:00:00 (CEST)Treviso/Istrana, Italy (16098): visibility: 15.05.2019 16:00:00 - 21.05.2019 16:00:00 (CEST)
Date & Time tt [°C] td [°C] ff [km/h] ff [kn] dd ppp [hPa] vv [km]
21.05.2019 16:00:00 - - - - - - -
21.05.2019 15:00:00 19,0 15,7 9 5 ESE 1009,8 10
21.05.2019 14:00:00 18,8 16,0 11 6 E 1009,5 10
21.05.2019 13:00:00 18,2 16,0 9 5 ESE 1009,4 9
21.05.2019 12:00:00 18,0 16,0 8 4 E 1009,1 8
21.05.2019 11:00:00 17,0 15,2 8 4 ENE 1008,5 7
21.05.2019 10:00:00 16,2 14,6 0 0 N 1008,2 7
21.05.2019 09:00:00 15,4 13,8 4 2 SSW 1007,7 7
21.05.2019 08:00:00 15,2 13,7 0 0 N 1007,5 6
21.05.2019 07:00:00 15,0 13,5 0 0 N 1006,8 6
21.05.2019 06:00:00 14,8 13,4 4 2 SW 1006,5 6
21.05.2019 05:00:00 14,8 13,5 5 3 SSW 1006,5 7
21.05.2019 04:00:00 14,4 13,1 5 3 SW 1007,0 8
21.05.2019 03:00:00 14,8 14,0 9 5 SW 1007,0 5
21.05.2019 02:00:00 14,8 14,0 5 3 SSW 1007,1 5
21.05.2019 01:00:00 15,0 14,8 8 4 SW 1007,3 7
21.05.2019 00:00:00 15,2 14,9 8 4 SSW 1007,3 7
20.05.2019 23:00:00 15,2 14,7 9 5 SSW 1006,6 10
20.05.2019 22:00:00 15,2 14,7 13 7 S 1006,2 12
20.05.2019 21:00:00 15,6 14,8 11 6 S 1006,1 12
20.05.2019 20:00:00 16,8 14,6 11 6 SW 1005,7 18
20.05.2019 19:00:00 17,0 15,4 11 6 S 1005,4 10
20.05.2019 18:00:00 18,0 15,8 13 7 SSW 1005,4 10
20.05.2019 17:00:00 18,0 14,9 18 10 SW 1005,4 10
20.05.2019 16:00:00 18,0 15,6 13 7 SW 1005,5 10
20.05.2019 15:00:00 17,8 15,4 21 11 SW 1005,3 10
20.05.2019 14:00:00 17,0 15,0 18 10 SSW 1005,2 10
20.05.2019 13:00:00 16,0 14,2 18 10 WSW 1005,1 13
20.05.2019 12:00:00 15,8 14,3 16 9 WSW 1004,7 12
20.05.2019 11:00:00 16,8 15,2 15 8 WSW 1004,7 8
20.05.2019 10:00:00 16,0 14,7 9 5 SW 1004,4 7
20.05.2019 09:00:00 15,0 13,9 5 3 WSW 1004,3 5
20.05.2019 08:00:00 15,6 14,5 0 0 N 1004,0 6
20.05.2019 07:00:00 13,0 11,7 0 0 N 1004,0 4,0
20.05.2019 06:00:00 13,4 12,1 0 0 N 1004,0 4,0
20.05.2019 05:00:00 13,8 12,5 5 3 SSW 1004,6 6
20.05.2019 04:00:00 14,4 12,8 0 0 N 1005,2 10
20.05.2019 03:00:00 14,4 12,8 0 0 N 1005,1 10
20.05.2019 02:00:00 14,4 12,8 0 0 N 1005,2 10
20.05.2019 01:00:00 14,0 12,7 0 0 N 1005,2 10
20.05.2019 00:00:00 14,8 13,5 0 0 N 1005,1 10
19.05.2019 23:00:00 14,8 13,5 0 0 N 1005,1 10
19.05.2019 22:00:00 15,0 13,9 5 3 NE 1005,1 9
19.05.2019 21:00:00 15,0 13,9 15 8 E 1005,1 7
19.05.2019 20:00:00 15,6 14,5 11 6 ENE 1005,4 8
19.05.2019 19:00:00 16,2 15,2 15 8 ENE 1005,3 8
19.05.2019 18:00:00 16,8 15,5 9 5 ENE 1005,3 10
19.05.2019 17:00:00 16,8 15,0 15 8 ENE 1005,2 12
19.05.2019 16:00:00 17,2 15,5 13 7 NE 1005,5 12
19.05.2019 15:00:00 16,6 15,1 11 6 ENE 1005,2 8
19.05.2019 14:00:00 16,0 14,5 11 6 E 1005,4 6
19.05.2019 13:00:00 15,6 14,1 11 6 E 1005,6 6
19.05.2019 12:00:00 15,4 13,8 16 9 E 1005,3 2,5
19.05.2019 11:00:00 15,4 13,8 15 8 ENE 1005,3 12
19.05.2019 10:00:00 14,8 13,2 15 8 ENE 1005,4 8
19.05.2019 09:00:00 14,2 12,6 18 10 NE 1006,1 5
19.05.2019 08:00:00 14,2 12,6 13 7 NE 1005,4 5
19.05.2019 07:00:00 14,0 12,4 9 5 NNE 1005,6 4,0
19.05.2019 06:00:00 14,0 12,4 13 7 NE 1005,6 5
19.05.2019 05:00:00 14,0 12,4 13 7 NE 1005,8 4,0
19.05.2019 04:00:00 14,0 12,4 13 7 NE 1006,1 4,0
19.05.2019 03:00:00 14,0 12,4 11 6 E 1006,5 4,0
19.05.2019 02:00:00 14,0 12,4 18 10 NE 1006,8 2,7
19.05.2019 01:00:00 14,0 12,4 18 10 ENE 1007,1 3,5
19.05.2019 00:00:00 14,0 12,4 16 9 NE 1007,3 2,4
18.05.2019 23:00:00 14,0 12,4 18 10 ENE 1007,4 2,7
18.05.2019 22:00:00 14,2 12,8 21 11 NE 1007,5 3,5
18.05.2019 21:00:00 14,0 12,6 26 14 NE 1007,3 3,0
18.05.2019 20:00:00 13,4 12,3 22 12 NE 1007,2 3,5
18.05.2019 19:00:00 13,4 12,8 21 11 ENE 1007,3 4,0
18.05.2019 18:00:00 15,0 14,2 18 10 NE 1007,4 7
18.05.2019 17:00:00 15,4 14,6 8 4 N 1007,5 10
18.05.2019 16:00:00 14,6 13,8 5 3 N 1007,8 6
18.05.2019 15:00:00 14,6 13,5 5 3 NNE 1008,1 7
18.05.2019 14:00:00 14,6 13,8 11 6 NNE 1008,1 12
18.05.2019 13:00:00 14,6 14,1 13 7 ENE 1008,5 7
18.05.2019 12:00:00 14,4 13,6 13 7 ENE 1008,5 7
18.05.2019 11:00:00 14,4 13,3 11 6 NE 1008,4 15
18.05.2019 10:00:00 14,0 13,0 9 5 NNE 1008,5 10
18.05.2019 09:00:00 14,0 12,9 5 3 E 1008,6 8
18.05.2019 08:00:00 14,0 12,7 9 5 NNE 1007,6 10
18.05.2019 07:00:00 13,8 13,2 9 5 NNW 1008,1 10
18.05.2019 06:00:00 13,6 12,5 9 5 NNE 1009,3 10
18.05.2019 05:00:00 13,6 12,5 4 2 NNW 1009,7 10
18.05.2019 04:00:00 - - - - - - -
18.05.2019 03:00:00 13,4 12,1 4 2 SSW 1009,8 15
18.05.2019 02:00:00 13,4 12,1 5 3 ENE 1009,6 15
18.05.2019 01:00:00 13,4 12,1 8 4 NE 1009,6 15
18.05.2019 00:00:00 13,4 12,1 5 3 NE 1009,6 15
17.05.2019 23:00:00 13,4 10,4 5 3 NE 1009,6 15
17.05.2019 22:00:00 14,0 11,0 5 3 NNE 1009,1 12
17.05.2019 21:00:00 15,4 11,6 0 0 N 1009,4 15
17.05.2019 20:00:00 16,8 10,9 11 6 SSE 1009,1 20
17.05.2019 19:00:00 20,0 12,7 11 6 E 1008,7 15
17.05.2019 18:00:00 20,4 12,9 9 5 ESE 1009,2 20
17.05.2019 17:00:00 21,0 13,9 9 5 SE 1009,5 20
17.05.2019 16:00:00 20,8 14,2 5 3 ESE 1009,9 20
17.05.2019 15:00:00 21,2 13,4 11 6 SSW 1010,1 20
17.05.2019 14:00:00 20,4 11,1 9 5 SSE 1010,5 15
17.05.2019 13:00:00 20,4 11,1 11 6 SSE 1010,7 15
17.05.2019 12:00:00 19,8 10,2 9 5 SE 1010,7 20
17.05.2019 11:00:00 18,6 11,2 11 6 ENE 1010,8 25
17.05.2019 10:00:00 17,2 11,5 13 7 ENE 1010,9 25
17.05.2019 09:00:00 16,0 11,2 8 4 NE 1011,1 25
17.05.2019 08:00:00 14,0 12,1 9 5 E 1011,5 25
17.05.2019 07:00:00 13,0 11,6 8 4 NE 1011,1 25
17.05.2019 06:00:00 12,6 12,0 9 5 NE 1010,5 25
17.05.2019 05:00:00 13,0 12,2 8 4 NE 1010,5 15
17.05.2019 04:00:00 13,0 12,2 0 0 N 1011,3 15
17.05.2019 03:00:00 13,0 12,1 0 0 N 1011,1 15
17.05.2019 02:00:00 13,0 12,2 0 0 N 1011,3 15
17.05.2019 01:00:00 14,0 12,4 8 4 ESE 1011,3 15
17.05.2019 00:00:00 14,6 12,6 0 0 N 1011,6 15
16.05.2019 23:00:00 15,0 12,5 2 1 S 1011,7 15
16.05.2019 22:00:00 15,0 10,4 2 1 W 1011,3 15
16.05.2019 21:00:00 16,0 11,4 4 2 S 1011,0 15
16.05.2019 20:00:00 17,0 10,4 8 4 ESE 1009,5 12
16.05.2019 19:00:00 19,4 9,9 8 4 SE 1010,1 12
16.05.2019 18:00:00 19,4 10,4 8 4 SE 1010,5 12
16.05.2019 17:00:00 20,4 10,8 0 0 N 1010,7 12
16.05.2019 16:00:00 20,0 10,7 5 3 ESE 1011,4 12
16.05.2019 15:00:00 18,6 10,2 4 2 ESE 1011,8 12
16.05.2019 14:00:00 18,6 10,7 5 3 ENE 1012,4 15
16.05.2019 13:00:00 17,0 10,4 5 3 NNE 1012,7 15
16.05.2019 12:00:00 17,0 10,8 5 3 WSW 1012,7 15
16.05.2019 11:00:00 16,2 10,3 4 2 SE 1013,4 15
16.05.2019 10:00:00 14,4 9,8 0 0 N 1012,8 15
16.05.2019 09:00:00 13,8 11,9 9 5 NNE 1012,8 15
16.05.2019 08:00:00 12,0 11,2 5 3 NE 1014,0 12
16.05.2019 07:00:00 10,0 9,4 8 4 NNE 1013,6 12
16.05.2019 06:00:00 8,0 7,5 9 5 NNE 1013,5 5
16.05.2019 05:00:00 9,4 9,0 4 2 E 1013,8 5
16.05.2019 04:00:00 10,0 9,4 0 0 N 1013,7 15
16.05.2019 03:00:00 12,0 11,4 0 0 N 1014,7 20
16.05.2019 02:00:00 12,0 11,4 0 0 N 1014,7 20
16.05.2019 01:00:00 11,2 10,7 0 0 N 1014,8 20
16.05.2019 00:00:00 11,0 10,5 0 0 N 1015,0 20
15.05.2019 23:00:00 12,0 11,4 0 0 N 1015,0 20
15.05.2019 22:00:00 12,8 10,9 0 0 N 1014,5 20
15.05.2019 21:00:00 15,0 10,8 0 0 N 1014,3 15
15.05.2019 20:00:00 16,0 10,3 8 4 E 1013,6 15
15.05.2019 19:00:00 16,0 9,0 4 2 E 1013,6 15
15.05.2019 18:00:00 16,8 10,9 4 2 ENE 1013,7 15
15.05.2019 17:00:00 16,8 10,9 4 2 N 1014,0 15
15.05.2019 16:00:00 15,2 10,8 5 3 SW 1014,5 18

tt = temperature
td = dewpoint
ff = wind speed
dd = wind direction
ppp = reduced air pressure
vv = visibility

Next stations